User: anonymous   Login
Location: Bonnesvalyn
(49.1218°N, 3.3177°E)
Time: 12:47:01
(UTC+00:00)
Language:

Cosmos 2074 Rocket - Orbit

View from above orbital plane
View from above orbital plane
View from above satellite
View from above satellite

Ground track
Ground track

The orbit data is extracted from the following two-line orbital elements,

1 20578U 90036B   23151.87474856  .00000006  00000-0 -91522-5 0  9992
2 20578  82.9437 185.3708 0013293  22.4320 150.6925 13.76450510663117
Epoch (UTC): 31 May 2023 20:59:38
Eccentricity: 0.0013293
inclination: 82.9437°
perigee height: 967 km
apogee height: 986 km
right ascension of ascending node: 185.3708°
argument of perigee: 22.4320°
revolutions per day: 13.76450510
mean anomaly at epoch: 150.6925°
orbit number at epoch: 66311

The dashed part of the orbit path shows where the satellite is in the earth's shadow,  

DLR